Location: Melbourne
(37.8666°S, 145.1333°E)
Time: 04:08:51

Hubble Space Telescope - Visible Passes

Search period start: 06 October 2015 00:00
Search period end: 16 October 2015 00:00
Orbit: 541 x 545 km, 28.5° (Epoch: 04 October)

Date Brightness Start Highest point End Pass type
(mag) Time Alt. Az. Time Alt. Az. Time Alt. Az.
06 Oct 2.5 05:20:53 19° N 05:20:54 19° N 05:23:52 10° NE visible
07 Oct 2.7 05:12:30 16° N 05:12:30 16° N 05:14:30 10° NNE visible
08 Oct 3.1 05:04:13 12° N 05:04:13 12° N 05:05:02 10° NNE visible
15 Oct 2.9 21:04:20 10° NNW 21:05:48 14° N 21:05:48 14° N visible
